Location: Caixon
(43.4106°N, 0.0273°E)
Time: 03:49:13
(UTC+00:00)

Daily predictions for brighter satellites

Satellite Brightness Start Highest point End
(mag) Time Altitude Azimuth Time Altitude Azimuth Time Altitude Azimuth
ATLAS 2AS CENTAUR R/B 4.1 02:22:31 35° NNE 02:22:31 35° NNE 02:26:54 10° NNE
Cosmos 1697 Rocket 4.3 02:50:39 28° E 02:50:39 28° E 02:53:55 10° ESE
COSMOS 2406 4.3 03:01:40 41° E 03:01:40 41° E 03:06:16 10° NE
Lacrosse 5 4.2 03:07:24 17° N 03:07:24 17° N 03:09:53 10° NE
Cosmos 2082 Rocket 3.2 03:27:07 34° SE 03:28:46 42° ESE 03:34:07 10° NE
ATLAS CENTAUR R/B 3.5 03:36:07 20° ESE 03:36:31 21° ESE 03:39:37 10° ENE
PAYLOAD A 4.2 03:33:14 10° NNE 03:37:54 69° ENE 03:37:54 69° ENE
Cosmos 1570 Rocket 4.2 03:42:27 64° N 03:42:27 64° N 03:46:58 10° NNE
SL-4 R/B 3.7 03:45:18 30° NNE 03:45:18 30° NNE 03:48:01 10° NE
GP-B 3.9 03:44:05 26° SE 03:46:14 49° E 03:50:31 10° N
ARIANE 5 R/B 3.3 03:42:23 10° N 03:45:41 41° N 03:45:41 41° N
IRIDIUM 103 4.4 03:46:07 51° SSE 03:47:22 73° E 03:52:35 10° N
USA 234 3.1 03:42:07 10° NE 03:48:40 89° SE 03:50:07 59° SW
ATLAS 5 CENTAUR R/B 2.4 03:54:02 58° SSW 03:54:02 58° SSW 04:00:05 10° SSE
Meteor 1-12 Rocket 4.2 03:49:53 10° NNW 03:59:18 21° S 04:01:08 10° S
Cosmos 1833 Rocket 2.8 03:57:03 55° NW 03:57:03 55° NW 04:02:06 10° NNE
H-2A ROCKET BODY 4.3 03:57:11 29° SW 03:57:58 30° SSW 04:02:58 10° SSE
Cosmos 2369 3.7 03:53:08 13° NNW 03:58:17 82° ENE 04:04:01 10° SSE
Nadezhda 1 Rocket 3.8 03:57:23 29° S 04:00:41 86° W 04:06:48 10° N
Lacrosse 5 rocket 3.3 04:01:19 19° SSE 04:03:02 25° SE 04:06:36 10° ENE
CZ-4B R/B 3.4 03:58:41 10° N 04:03:58 74° WNW 04:04:42 63° SW
DELTA 2 R/B (1) 3.9 04:03:59 48° SSW 04:04:04 48° SSW 04:09:23 10° ESE
CZ-2C R/B 3.2 04:00:26 10° NNE 04:03:37 56° NE 04:03:37 56° NE
IRIDIUM 106 4.1 04:04:19 51° SSW 04:05:39 77° W 04:10:54 10° N
BREEZE-M DEB (TANK) 3.6 04:07:19 27° E 04:07:19 27° E 04:08:53 10° ENE
Meteor 1-13 Rocket 4.3 04:06:53 51° WNW 04:06:53 51° WNW 04:12:00 10° N
ALOS 2.1 04:03:02 10° NNE 04:07:43 85° WNW 04:08:33 61° SSW
Cosmos 1610 Rocket 4.3 04:01:38 10° N 04:07:51 80° W 04:14:07 10° S
METEOR-M 4.4 04:04:56 10° NNE 04:10:17 68° ESE 04:15:35 10° S
CZ-2C R/B 2.4 04:05:40 10° N 04:10:22 59° WNW 04:10:22 59° WNW
Cosmos 1726 3.4 04:08:00 10° N 04:11:29 39° ENE 04:14:57 10° SSE
Cosmos 2360 4.1 04:10:07 45° WNW 04:11:37 60° WSW 04:17:13 10° S
Cosmos 1484 Rocket 3.3 04:07:56 10° NNE 04:11:39 56° E 04:13:32 26° S
ATLAS 2AS CENTAUR R/B 4.4 04:09:58 19° NW 04:12:07 21° NNW 04:17:36 10° NNE
Cosmos 1980 Rocket 2.2 04:08:15 10° NNW 04:14:00 84° ENE 04:19:42 10° SSE
Cosmos 2184 Rocket 4.1 04:09:33 10° NNW 04:15:24 46° W 04:21:15 10° SSW
Cosmos 2341 Rocket 4.4 04:09:39 10° N 04:15:57 64° E 04:22:09 10° SSE
Meteor 1-23 Rocket 4.1 04:15:58 21° SSW 04:19:55 72° W 04:25:38 10° N
Cosmos 2298 Rocket 3.9 04:17:02 10° NNW 04:22:21 82° WSW 04:27:39 10° SSE
FALCON 9 DEB 3.7 04:22:36 45° NE 04:22:36 45° NE 04:25:20 10° ESE
FALCON 9 DEB 3.3 04:25:45 57° E 04:25:45 57° E 04:28:16 10° ESE
Cosmos 2151 Rocket 4.1 04:21:55 10° N 04:26:17 59° E 04:30:36 10° SSE
COSMOS 2455 3.7 04:23:44 10° S 04:29:28 49° ESE 04:35:15 10° NE
FENGYUN 3A 3.8 04:24:15 10° N 04:29:30 53° WNW 04:32:06 28° SW
FALCON 9 DEB 3.4 04:30:52 49° NNE 04:31:06 51° NNE 04:34:04 10° ESE
FALCON 9 DEB 3.4 04:31:28 49° NNW 04:32:06 61° NNE 04:35:26 10° ESE
Cosmos 1697 Rocket 3.1 04:32:35 36° WSW 04:32:43 36° WSW 04:37:46 10° S
Sich 1 Rocket 3.4 04:28:51 10° NNW 04:33:14 67° W 04:37:36 10° S
Cosmos 1674 Rocket 4.3 04:29:34 10° S 04:33:49 54° E 04:38:04 10° NNE
GEOS 3 Rocket 3.7 04:29:33 10° NE 04:34:43 74° SE 04:39:12 13° SSW
BREEZE M DEB (TANK) 3.4 04:30:27 22° WNW 04:35:26 88° NNE 04:38:37 10° ESE
Cosmos 1300 Rocket 3.5 04:33:17 10° NNW 04:37:32 54° W 04:41:46 10° S
Cosmos 2154 Rocket 4.2 04:33:09 10° NNW 04:38:58 43° W 04:44:45 10° SSW
Cosmos 2278 3.6 04:36:34 10° NNW 04:42:18 79° WSW 04:48:00 10° SSE
Cosmos 1125 Rocket 3.4 04:39:09 10° NNW 04:44:18 63° WSW 04:49:24 10° S
COSMOS 2406 4.0 04:43:46 28° W 04:45:16 31° NW 04:50:23 10° N
Lacrosse 5 3.7 04:46:52 10° NW 04:51:04 25° NNE 04:55:14 10° ENE
Cosmos 1461 3.4 04:51:21 29° W 04:53:00 43° NW 04:57:03 10° NNE
Meteor 2-10 4.1 04:48:44 10° NNW 04:53:34 47° W 04:58:26 10° SSW
Cosmos 1340 2.6 04:50:22 10° SSW 04:54:04 61° WNW 04:57:49 10° N
PSLV R/B 3.8 04:51:33 10° N 04:55:46 47° WNW 04:59:57 10° SW
NOSS 3-1 (C) 4.1 04:48:35 10° NW 04:56:10 65° WSW 05:04:55 10° SSE
Cosmos 921 Rocket 4.4 04:56:40 21° WNW 04:56:40 21° WNW 04:59:49 10° NNW
Cosmos 2366 rocket 4.1 04:51:22 10° N 04:57:43 86° E 05:04:05 10° S
Cosmos 1959 Rocket 4.5 04:53:37 10° N 04:59:45 88° E 05:05:52 10° S
SL-16 R/B 2.9 04:54:17 10° NNW 04:59:52 56° ENE 05:05:26 10° SE
Cosmos 864 Rocket 4.5 04:56:10 10° N 05:02:23 90° SE 05:08:35 10° S
In-Cosmos 22 4.4 04:58:47 10° S 05:04:04 71° E 05:09:20 10° NNE
Cosmos 371 Rocket 4.4 05:01:04 10° N 05:05:49 47° ENE 05:10:31 10° SE
Cosmos 1842 4.0 05:03:50 15° SW 05:06:28 30° WNW 05:10:00 10° NNW
Cosmos 2181 Rocket 3.9 05:00:48 10° SSW 05:06:55 73° W 05:13:08 10° N
Meteor 1-21 4.2 05:01:53 10° SSW 05:07:35 76° W 05:13:16 10° N
Meteor 1-31 Rocket 3.0 05:06:43 10° NNE 05:10:31 70° E 05:14:17 10° S
Cosmos 1626 4.0 05:08:42 10° SSE 05:12:04 35° E 05:15:28 10° NNE
Cosmos 2082 Rocket 3.0 05:09:02 15° WSW 05:12:57 32° NW 05:18:04 10° N
ATLAS CENTAUR R/B 1.9 05:12:18 16° WSW 05:15:05 40° NW 05:19:07 10° NNE
Cosmos 2322 Rocket 2.9 05:12:42 10° NNW 05:18:17 59° ENE 05:23:52 10° SE
Cosmos 389 Rocket 2.4 05:14:51 10° N 05:18:21 87° W 05:21:52 10° S
Cosmos 1707 3.0 05:17:48 10° SSW 05:21:33 45° WNW 05:25:20 10° N
Cosmos 2221 Rocket 4.5 05:18:54 10° SW 05:22:39 27° WNW 05:26:25 10° NNW
COSMO-SKYMED 1 2.5 05:18:51 10° S 05:23:10 76° WSW 05:27:32 10° NNW
SL-4 R/B 3.6 05:20:51 10° NW 05:24:27 26° N 05:27:55 10° ENE
Okean 2 Rocket 4.0 05:21:05 10° NNW 05:24:52 27° W 05:28:39 10° SW
Okean 2 3.9 05:24:12 10° SW 05:27:57 36° WNW 05:31:45 10° N
FALCON 9 DEB 3.9 05:26:29 15° W 05:28:25 27° SW 05:31:01 10° SSE
Cosmos 1908 3.6 05:24:40 10° N 05:28:29 66° E 05:32:16 10° SSE
USA 234 4.0 05:25:22 10° NE 05:31:16 38° NNW 05:37:10 10° W
Cosmos 405 4.4 05:30:32 10° NW 05:32:53 17° W 05:35:12 10° SW
CZ-4B R/B 4.3 05:31:56 10° ESE 05:33:57 17° ENE 05:36:00 10° NNE
Cosmos 2360 Rocket 3.3 05:28:31 10° NNW 05:34:00 48° ENE 05:39:29 10° SE
YAOGAN 6 2.8 05:32:17 10° N 05:35:39 44° WNW 05:39:00 10° SSW
Cosmos 2219 Rocket 4.4 05:31:31 10° N 05:35:58 23° NE 05:40:23 10° ESE
SJ-12 4.2 05:32:59 10° N 05:36:51 44° WNW 05:40:42 10° SW
ATLAS 5 CENTAUR R/B 4.2 05:36:30 10° W 05:37:27 10° WSW 05:38:26 10° WSW
Cosmos 1378 Rocket 4.2 05:34:05 10° SW 05:38:04 34° WNW 05:42:07 10° N
Cosmos 2218 Rocket 4.3 05:32:39 10° NNW 05:38:43 46° W 05:44:44 10° SSW
CZ-2C R/B 2.7 05:34:07 10° S 05:39:30 71° WSW 05:45:03 10° NNW
Cosmos 1455 Rocket 3.8 05:36:35 10° N 05:41:01 59° E 05:45:23 10° SSE
Cosmos 1470 4.0 05:38:29 10° NW 05:41:25 20° W 05:44:19 10° SW
Lacrosse 5 rocket 1.7 05:37:48 10° WSW 05:41:55 50° NW 05:46:16 10° NE
ALOS 4.2 05:43:21 10° NW 05:44:21 11° WNW 05:45:20 10° WNW
Cosmos 1758 4.0 05:41:36 10° NNW 05:45:10 33° W 05:48:44 10° SSW
BREEZE-M DEB (TANK) 3.3 05:42:47 10° NW 05:45:27 44° NNE 05:50:38 10° ESE
Cosmos 1821 Rocket 4.1 05:39:35 10° N 05:45:54 88° W 05:52:03 10° S
Cosmos 1726 3.9 05:44:32 10° WNW 05:46:13 13° W 05:47:53 10° WSW
Cosmos 1975 Rocket 3.2 05:44:45 10° S 05:49:08 85° E 05:53:37 10° N
Cosmos 1025 Rocket 4.0 05:46:27 10° S 05:50:40 53° E 05:54:54 10° NNE
